When you browse on this site, cookies collect data to enhance your experience and personalize the content and advertising you see.
Visit our Privacy Policy to learn more. By continuing to use the site, you agree to this use of cookies and data.
  • In Portugal
  • List of Countries
  • For 7 days
  • Water Temperature
  • Satellite Maps
  • Weather Map
  • Weather Widgets
  • user-avatar
    Login

    Hourly Weather Bor

    Today, 16 February, Saturday

    Time Temperature Precipitation Wind Pressure Humidity
    00:00 -1°C° 0 mm 5 mps 749 mmHg 95%
    01:00 -1°C° 0 mm 5 mps 749 mmHg 95%
    02:00 0°C° 0 mm 3 mps 749 mmHg 95%
    03:00 0°C° 0 mm 3 mps 749 mmHg 95%
    04:00 -1°C° 0 mm 4 mps 749 mmHg 95%
    05:00 -1°C° 0 mm 4 mps 749 mmHg 95%
    06:00 -1°C° 0 mm 4 mps 749 mmHg 95%
    07:00 -1°C° 0 mm 4 mps 748 mmHg 95%
    08:00 0°C° 0 mm 3 mps 748 mmHg 95%
    09:00 -1°C° 0 mm 4 mps 748 mmHg 95%
    10:00 -1°C° 0 mm 4 mps 748 mmHg 96%
    11:00 -1°C° 0 mm 4 mps 748 mmHg 96%
    12:00 -1°C° 0 mm 4 mps 748 mmHg 94%
    13:00 0°C° 0 mm 4 mps 747 mmHg 93%
    14:00 +2°C° 0 mm 3 mps 747 mmHg 93%
    15:00 0°C° 0 mm 4 mps 747 mmHg 90%
    16:00 0°C° 0 mm 4 mps 747 mmHg 88%
    17:00 0°C° 0 mm 4 mps 746 mmHg 85%
    18:00 0°C° 0 mm 4 mps 746 mmHg 83%
    19:00 -1°C° 0 mm 4 mps 745 mmHg 81%
    20:00 -1°C° 0 mm 5 mps 745 mmHg 80%
    21:00 -1°C° 0 mm 5 mps 744 mmHg 78%
    22:00 -1°C° 0 mm 5 mps 744 mmHg 77%
    23:00 -1°C° 0 mm 5 mps 743 mmHg 76%

    Tomorrow, 17 February, Sunday

    Time Temperature Precipitation Wind Pressure Humidity
    00:00 -1°C° 0 mm 5 mps 743 mmHg 77%
    01:00 -1°C° 0 mm 5 mps 742 mmHg 78%
    02:00 -1°C° 0 mm 5 mps 742 mmHg 78%
    03:00 -1°C° 0 mm 5 mps 741 mmHg 81%
    04:00 -2°C° 0 mm 6 mps 741 mmHg 83%
    05:00 -2°C° 0 mm 6 mps 741 mmHg 85%
    06:00 -2°C° 0 mm 6 mps 741 mmHg 87%
    07:00 -1°C° 0 mm 5 mps 741 mmHg 89%
    08:00 -1°C° 0 mm 5 mps 741 mmHg 92%
    09:00 0°C° 0 mm 5 mps 741 mmHg 92%
    10:00 0°C° 0 mm 5 mps 742 mmHg 92%
    11:00 0°C° 0 mm 5 mps 742 mmHg 92%
    12:00 +1°C° 0 mm 5 mps 742 mmHg 88%
    13:00 +1°C° 0 mm 5 mps 742 mmHg 84%
    14:00 +1°C° 0 mm 6 mps 743 mmHg 80%
    15:00 +1°C° 0 mm 5 mps 743 mmHg 79%
    16:00 0°C° 0 mm 5 mps 743 mmHg 78%
    17:00 -1°C° 0 mm 5 mps 744 mmHg 77%
    18:00 -2°C° 0 mm 5 mps 744 mmHg 78%
    19:00 -2°C° 0 mm 5 mps 745 mmHg 80%
    20:00 -3°C° 0 mm 4 mps 745 mmHg 82%
    21:00 -3°C° 0 mm 4 mps 745 mmHg 83%
    22:00 -3°C° 0 mm 4 mps 746 mmHg 85%
    23:00 -4°C° 0 mm 4 mps 746 mmHg 86%

    Day after tomorrow, 18 February, Monday

    Time Temperature Precipitation Wind Pressure Humidity
    00:00 -4°C° 0 mm 3 mps 747 mmHg 87%
    01:00 -4°C° 0 mm 3 mps 747 mmHg 88%
    02:00 -4°C° 0 mm 3 mps 748 mmHg 89%
    03:00 -5°C° 0 mm 3 mps 748 mmHg 89%
    04:00 -5°C° 0 mm 3 mps 748 mmHg 89%
    05:00 -5°C° 0 mm 3 mps 748 mmHg 89%
    06:00 -4°C° 0 mm 2 mps 749 mmHg 88%
    07:00 -4°C° 0 mm 2 mps 749 mmHg 87%
    08:00 -4°C° 0 mm 2 mps 750 mmHg 87%
    09:00 -4°C° 0 mm 2 mps 750 mmHg 81%
    10:00 -3°C° 0 mm 2 mps 750 mmHg 74%
    11:00 -2°C° 0 mm 2 mps 750 mmHg 68%
    12:00 -2°C° 0 mm 2 mps 751 mmHg 65%
    13:00 +1°C° 0 mm 1 mps 751 mmHg 61%
    14:00 +1°C° 0 mm 1 mps 751 mmHg 57%
    15:00 +1°C° 0 mm 1 mps 751 mmHg 60%
    16:00 0°C° 0 mm 1 mps 751 mmHg 63%
    17:00 -2°C° 0 mm 0 mps 750 mmHg 66%
    18:00 -1°C° 0 mm 1 mps 750 mmHg 68%
    19:00 -1°C° 0 mm 1 mps 750 mmHg 70%
    20:00 -3°C° 0 mm 2 mps 750 mmHg 72%
    21:00 -3°C° 0 mm 2 mps 750 mmHg 73%
    22:00 -4°C° 0 mm 2 mps 750 mmHg 75%
    23:00 -5°C° 0 mm 3 mps 750 mmHg 76%

    19 February, Tuesday

    Time Temperature Precipitation Wind Pressure Humidity
    00:00 -5°C° 0 mm 3 mps 750 mmHg 75%
    01:00 -5°C° 0 mm 4 mps 750 mmHg 74%
    02:00 -5°C° 0 mm 4 mps 750 mmHg 73%
    03:00 -5°C° 0 mm 4 mps 749 mmHg 73%
    04:00 -5°C° 0 mm 4 mps 749 mmHg 73%
    05:00 -5°C° 0 mm 4 mps 748 mmHg 73%
    06:00 -6°C° 0 mm 5 mps 748 mmHg 73%
    07:00 -5°C° 0 mm 5 mps 748 mmHg 73%
    08:00 -5°C° 0 mm 5 mps 747 mmHg 73%
    09:00 -4°C° 0 mm 5 mps 747 mmHg 71%
    10:00 -3°C° 0 mm 6 mps 747 mmHg 69%
    11:00 -2°C° 0 mm 6 mps 746 mmHg 67%
    12:00 -1°C° 0 mm 6 mps 746 mmHg 68%
    13:00 -1°C° 0 mm 6 mps 745 mmHg 68%
    14:00 +1°C° 0 mm 6 mps 745 mmHg 68%
    15:00 -1°C° 0 mm 6 mps 744 mmHg 70%
    16:00 -1°C° 0 mm 6 mps 743 mmHg 72%
    17:00 -1°C° 0 mm 6 mps 743 mmHg 74%
    18:00 -2°C° 0 mm 6 mps 742 mmHg 77%
    19:00 -2°C° 0 mm 6 mps 742 mmHg 80%
    20:00 -2°C° 0 mm 6 mps 741 mmHg 83%
    21:00 -2°C° 0 mm 6 mps 741 mmHg 85%
    22:00 -2°C° 0 mm 6 mps 740 mmHg 87%
    23:00 -2°C° 0 mm 6 mps 740 mmHg 90%

    20 February, Wednesday

    Time Temperature Precipitation Wind Pressure Humidity
    00:00 -1°C° 0 mm 5 mps 739 mmHg 90%
    01:00 -1°C° 0 mm 5 mps 739 mmHg 90%
    02:00 -1°C° 0 mm 5 mps 738 mmHg 91%
    03:00 -1°C° 0.2 mm 5 mps 738 mmHg 90%
    04:00 -1°C° 0.2 mm 5 mps 737 mmHg 90%
    05:00 -1°C° 0.2 mm 5 mps 737 mmHg 90%
    06:00 0°C° 0.2 mm 5 mps 737 mmHg 90%
    07:00 0°C° 0.2 mm 5 mps 737 mmHg 91%
    08:00 0°C° 0.2 mm 5 mps 737 mmHg 92%
    09:00 0°C° 0.1 mm 5 mps 737 mmHg 90%
    10:00 +1°C° 0.1 mm 5 mps 737 mmHg 88%
    11:00 +1°C° 0.1 mm 5 mps 737 mmHg 86%
    12:00 +2°C° 0.1 mm 5 mps 737 mmHg 83%
    13:00 +2°C° 0.1 mm 5 mps 737 mmHg 80%
    14:00 +2°C° 0.1 mm 6 mps 737 mmHg 77%
    15:00 +2°C° 0.1 mm 6 mps 737 mmHg 79%
    16:00 +1°C° 0.1 mm 6 mps 737 mmHg 81%
    17:00 -1°C° 0.1 mm 6 mps 737 mmHg 84%
    18:00 -1°C° 0.2 mm 6 mps 737 mmHg 81%
    19:00 -2°C° 0.2 mm 6 mps 737 mmHg 79%
    20:00 -2°C° 0.2 mm 6 mps 737 mmHg 76%
    21:00 -3°C° 0 mm 6 mps 738 mmHg 76%
    22:00 -3°C° 0 mm 7 mps 738 mmHg 76%
    23:00 -3°C° 0 mm 7 mps 739 mmHg 77%

    21 February, Thursday

    Time Temperature Precipitation Wind Pressure Humidity
    00:00 -3°C° 0 mm 7 mps 739 mmHg 77%
    01:00 -4°C° 0 mm 7 mps 739 mmHg 78%
    02:00 -4°C° 0 mm 7 mps 740 mmHg 78%
    03:00 -4°C° 0 mm 7 mps 740 mmHg 76%
    04:00 -4°C° 0 mm 7 mps 740 mmHg 74%
    05:00 -4°C° 0 mm 7 mps 741 mmHg 72%
    06:00 -7°C° 0 mm 7 mps 742 mmHg 69%
    07:00 -8°C° 0 mm 7 mps 742 mmHg 66%
    08:00 -9°C° 0 mm 7 mps 743 mmHg 62%
    09:00 -9°C° 0 mm 7 mps 743 mmHg 60%
    10:00 -8°C° 0 mm 7 mps 744 mmHg 58%
    11:00 -8°C° 0 mm 7 mps 745 mmHg 55%
    12:00 -8°C° 0 mm 6 mps 745 mmHg 55%
    13:00 -6°C° 0 mm 6 mps 745 mmHg 54%
    14:00 -6°C° 0 mm 6 mps 746 mmHg 54%
    15:00 -6°C° 0 mm 6 mps 746 mmHg 54%
    16:00 -6°C° 0 mm 5 mps 746 mmHg 55%
    17:00 -7°C° 0 mm 5 mps 747 mmHg 56%
    18:00 -7°C° 0 mm 5 mps 747 mmHg 58%
    19:00 -7°C° 0 mm 4 mps 748 mmHg 60%
    20:00 -8°C° 0 mm 4 mps 748 mmHg 62%
    21:00 -8°C° 0 mm 4 mps 748 mmHg 63%
    22:00 -8°C° 0 mm 4 mps 748 mmHg 64%
    23:00 -8°C° 0 mm 3 mps 749 mmHg 65%
    Show more